"Pseudo-MPEC" for 19A1911

Created 2021 Sep 20 16:07:02 UT using Find_Orb

Click here for an explanation of pseudo-MPECs

 
 Astrometry: 
     19A1911 KC2021 09 11RJJ%YouAstrometrywa/redacted;6NP'#OnBA6DqUclickqY]M,W94
     19A1911 KC2021 09 11#%0M^Nkwgo_P+3'fk0[gRKe#Z\\0huiRINnFW5of*m@OW!chere[W94
     19A1911 KC2021 09 11fa=Y'DTKvWyforVLy4anP'H4Nhc,DexplanationYoJ:61X8j9]yW94

Station data:
(W94) AMACS1, San Pedro de Atacama  (S22.953076 W68.179810)  Chile.

Orbital elements:  19A1911
   Perihelion 2020 Sep 3.249621 +/- 384.232 TT =  5:59:27 (JD 2459095.749621)
Epoch 2021 Sep 11.0 TT = JDT 2459468.5   Earth MOID: 0.5864   Ma: 0.0488
M 148.49072897 +/- 110.21147        (J2000 ecliptic)          AutoNEOCP
n   0.39836506 +/- 0.269157         Peri.   53.56100 +/- 65.413473
a   1.82928715 +/- 0.823961         Node   125.24193 +/- 26.078759
e   0.1709775 +/- 0.246624          Incl.   21.01980 +/- 35.654479
P   2.47/903.68d           H 17.7   G  0.15   U 11.9  SR
q 1.51652014 +/- 1.14041    Q 2.14205416 +/- 36.9573
From 3 observations 2021 Sept. 11 (16.5 min); mean residual 0".48
Residuals in arcseconds: 
210911 W94  .41+  .26+    210911 W94  .81-  .50-    210911 W94  .40+  .25+    

Ephemerides (geocentric):
Date (UTC) HH   RA              Dec         delta   r     elong  mag " sig PA
---- -- -- --  -------------   -----------  ------ ------ -----  --- ---- ---
2021 09 20 16  21 56 51.427   -33 14 26.71  1.2598 2.1156 138.0 20.8 2568 157
2021 09 20 17  21 56 49.801   -33 14 39.11  1.2601 2.1157 138.0 20.8 2581 157
2021 09 20 18  21 56 48.179   -33 14 51.48  1.2605 2.1157 137.9 20.8 2594 157
2021 09 20 19  21 56 46.561   -33 15 03.80  1.2608 2.1157 137.9 20.8 2606 157
2021 09 20 20  21 56 44.947   -33 15 16.07  1.2612 2.1158 137.8 20.8 2619 157
2021 09 20 21  21 56 43.336   -33 15 28.31  1.2615 2.1158 137.8 20.8 2632 157
2021 09 20 22  21 56 41.728   -33 15 40.50  1.2619 2.1158 137.8 20.8 2644 157
2021 09 20 23  21 56 40.125   -33 15 52.65  1.2622 2.1159 137.7 20.8 2657 157
2021 09 21 00  21 56 38.524   -33 16 04.75  1.2626 2.1159 137.7 20.8 2670 157
2021 09 21 01  21 56 36.928   -33 16 16.82  1.2630 2.1159 137.6 20.8 2683 157
2021 09 21 02  21 56 35.335   -33 16 28.84  1.2633 2.1159 137.6 20.8 2696 157
2021 09 21 03  21 56 33.746   -33 16 40.81  1.2637 2.1160 137.6 20.8 2708 157
2021 09 21 04  21 56 32.160   -33 16 52.75  1.2640 2.1160 137.5 20.8 2721 157
2021 09 21 05  21 56 30.578   -33 17 04.64  1.2644 2.1160 137.5 20.8 2734 157
2021 09 21 06  21 56 29.000   -33 17 16.49  1.2647 2.1161 137.4 20.8 2747 157
2021 09 21 07  21 56 27.425   -33 17 28.30  1.2651 2.1161 137.4 20.8 2760 157
2021 09 21 08  21 56 25.854   -33 17 40.07  1.2654 2.1161 137.3 20.8 2773 156
2021 09 21 09  21 56 24.287   -33 17 51.79  1.2658 2.1162 137.3 20.8 2786 156
2021 09 21 10  21 56 22.723   -33 18 03.47  1.2662 2.1162 137.3 20.8 2799 156
2021 09 21 11  21 56 21.163   -33 18 15.11  1.2665 2.1162 137.2 20.8 2812 156
2021 09 21 12  21 56 19.606   -33 18 26.70  1.2669 2.1163 137.2 20.8 2825 156
2021 09 21 13  21 56 18.054   -33 18 38.26  1.2672 2.1163 137.1 20.8 2838 156
2021 09 21 14  21 56 16.504   -33 18 49.77  1.2676 2.1163 137.1 20.8 2851 156
2021 09 21 15  21 56 14.959   -33 19 01.24  1.2679 2.1164 137.1 20.8 2864 156
2021 09 21 16  21 56 13.417   -33 19 12.66  1.2683 2.1164 137.0 20.8 2877 156
2021 09 21 17  21 56 11.879   -33 19 24.05  1.2687 2.1164 137.0 20.8 2890 156
2021 09 21 18  21 56 10.344   -33 19 35.39  1.2690 2.1164 136.9 20.8 2903 156
2021 09 21 19  21 56 08.814   -33 19 46.69  1.2694 2.1165 136.9 20.8 2916 156
2021 09 21 20  21 56 07.286   -33 19 57.95  1.2697 2.1165 136.8 20.8 2929 156
2021 09 21 21  21 56 05.763   -33 20 09.16  1.2701 2.1165 136.8 20.8 2943 156
2021 09 21 22  21 56 04.243   -33 20 20.34  1.2705 2.1166 136.8 20.8 2956 156
2021 09 21 23  21 56 02.727   -33 20 31.47  1.2708 2.1166 136.7 20.8 2969 156
2021 09 22 00  21 56 01.214   -33 20 42.56  1.2712 2.1166 136.7 20.8 2982 156
2021 09 22 01  21 55 59.705   -33 20 53.61  1.2715 2.1167 136.6 20.8 2996 156
2021 09 22 02  21 55 58.200   -33 21 04.61  1.2719 2.1167 136.6 20.8 3009 156
2021 09 22 03  21 55 56.699   -33 21 15.58  1.2723 2.1167 136.6 20.8 3022 156
2021 09 22 04  21 55 55.201   -33 21 26.50  1.2726 2.1168 136.5 20.8 3035 156
2021 09 22 05  21 55 53.707   -33 21 37.38  1.2730 2.1168 136.5 20.8 3049 156
2021 09 22 06  21 55 52.216   -33 21 48.22  1.2734 2.1168 136.4 20.8 3062 156
2021 09 22 07  21 55 50.730   -33 21 59.01  1.2737 2.1168 136.4 20.8 3075 156
2021 09 22 08  21 55 49.247   -33 22 09.77  1.2741 2.1169 136.3 20.8 3089 156
2021 09 22 09  21 55 47.767   -33 22 20.48  1.2744 2.1169 136.3 20.8 3102 156
2021 09 22 10  21 55 46.292   -33 22 31.15  1.2748 2.1169 136.3 20.8 3116 156
2021 09 22 11  21 55 44.820   -33 22 41.78  1.2752 2.1170 136.2 20.8 3129 155
2021 09 22 12  21 55 43.351   -33 22 52.37  1.2755 2.1170 136.2 20.8 3143 155
2021 09 22 13  21 55 41.887   -33 23 02.92  1.2759 2.1170 136.1 20.8 3156 155
2021 09 22 14  21 55 40.426   -33 23 13.42  1.2763 2.1171 136.1 20.8 3170 155
2021 09 22 15  21 55 38.969   -33 23 23.89  1.2766 2.1171 136.1 20.8 3183 155